[[{"header":{"parameterUnit":"m.s-1","parameterCategory":1,"la1":30.2991,"la2":30.254,"lo1":-89.0895,"lo2":-89.0444,"dy":0.0017,"dx":0.0017,"nx":28,"ny":28,"refTime":"2024-12-02T09:00:00:Z","depth":0,"parameterNumber":2,"parameterNumberName":"U-component_of_WINDS"},"data":[0,0,0,0,0,0,0,0,0,0,0,0,0,0,0,0,0,0,0,0,0,0,0,0,0,0,0,0,0,0,0,0,0,0,0,0,0,0,0,0,0,0,0,0,0,0,0,0,0,0,0,0,0,0,0,0,0,0,-0.278,-0.2781,0,-0.2845,-0.2846,-0.2847,-0.285,-0.2849,-0.2848,-0.2847,-0.2917,-0.2919,-0.2922,0,0,0,0,0,0,0,0,0,0,0,0,0,-0.2659,-0.2662,-0.278,-0.2781,-0.2782,-0.2845,-0.2846,-0.2847,-0.285,-0.2849,-0.2848,-0.2847,-0.2916,-0.2919,-0.2922,0,0,0,0,0,0,0,0,0,0,0,0,0,-0.2717,-0.2662,-0.278,-0.2791,-0.2792,-0.2845,-0.2846,-0.2847,-0.285,-0.2849,-0.2848,-0.2846,-0.2915,-0.2919,-0.2922,-0.297,0,0,-0.2934,-0.2936,0,0,0,0,0,0,0,0,-0.2714,-0.2721,-0.2788,-0.279,-0.2792,-0.2838,-0.2829,-0.2889,-0.285,-0.2828,-0.2847,-0.2846,-0.2892,-0.2897,-0.2912,-0.2973,-0.2976,-0.2935,-0.2937,-0.2939,-0.294,0,0,0,0,0,0,0,-0.271,-0.2719,-0.2806,-0.2789,-0.2791,-0.2793,-0.28,-0.284,-0.2866,-0.283,-0.283,-0.2838,-0.2892,-0.2909,-0.2914,-0.2977,-0.2935,-0.2938,-0.294,-0.2942,-0.308,-0.3081,0,0,0,0,0,0,-0.2703,-0.2715,-0.2804,-0.2808,-0.2749,-0.2796,-0.2804,-0.2824,-0.2865,-0.287,-0.2839,-0.2838,-0.2903,-0.2909,-0.2916,-0.2975,-0.2939,-0.2942,-0.2944,-0.3079,-0.308,-0.3082,0,0,0,0,0,0,-0.2701,-0.2711,-0.2801,-0.2762,-0.2773,-0.2799,-0.2823,-0.2826,-0.2842,-0.2872,-0.2877,-0.285,-0.2902,-0.2911,-0.2956,-0.2977,-0.2944,-0.2948,-0.3077,-0.3079,-0.3081,-0.3092,0,0,0,0,0,0,-0.2697,-0.271,-0.2728,-0.2762,-0.2775,-0.284,-0.2824,-0.2829,-0.2849,-0.2848,-0.2884,-0.2889,-0.2902,-0.2951,-0.296,-0.2982,-0.2951,-0.3075,-0.3078,-0.308,-0.309,-0.3094,-0.3098,0,0,0,0,0,-0.2693,-0.2729,-0.2729,-0.274,-0.2798,-0.2841,-0.2849,-0.2862,-0.285,-0.2869,-0.2888,-0.2888,-0.2973,-0.2955,-0.2966,-0.2989,-0.3074,-0.3077,-0.308,-0.3088,-0.3093,-0.3097,0,0,0,0,0,0,-0.2699,-0.2734,-0.2734,-0.2782,-0.2808,-0.2841,-0.2865,-0.2867,-0.2897,-0.2895,-0.2911,-0.2919,-0.2964,-0.2981,-0.2961,-0.3037,-0.3022,-0.3028,-0.3025,-0.303,-0.3034,-0.3029,-0.2954,0,0,0,0,0,-0.2705,-0.2736,-0.2766,-0.2805,-0.2818,-0.2839,-0.2858,-0.2866,-0.2894,-0.2905,-0.2927,-0.2955,-0.2988,-0.301,-0.3042,-0.3092,-0.31,-0.3113,-0.3117,-0.312,-0.3125,-0.3152,-0.3159,-0.3092,-0.3092,-0.3092,0,0,-0.272,-0.2743,-0.2762,-0.2807,-0.2828,-0.286,-0.2849,-0.2883,-0.2908,-0.2911,-0.2955,-0.2972,-0.3004,-0.3052,-0.3074,-0.3068,-0.3145,-0.3124,-0.3126,-0.3129,-0.3156,-0.3163,-0.3168,-0.3094,-0.3093,-0.3093,0,0,-0.2763,-0.2783,-0.2818,-0.2839,-0.2871,-0.2884,-0.2893,-0.2925,-0.2936,-0.298,-0.2983,-0.3012,-0.3069,-0.3091,-0.311,-0.316,-0.3162,-0.317,-0.3191,-0.3218,-0.3223,-0.3228,-0.3246,-0.3253,-0.3175,-0.3175,-0.3175,0,-0.2777,-0.2825,-0.2836,-0.2871,-0.2891,-0.2894,-0.293,-0.295,-0.2991,-0.3005,-0.2996,-0.3067,-0.3089,-0.3142,-0.3154,-0.3169,-0.3179,-0.3167,-0.3221,-0.3226,-0.3231,-0.3249,-0.3255,-0.3176,-0.3176,-0.3175,-0.3175,0,-0.2841,-0.2874,-0.2899,-0.2937,-0.296,-0.2995,-0.3012,-0.3034,-0.3039,-0.3054,-0.3099,-0.3124,-0.3162,-0.3174,-0.318,-0.3228,-0.3223,-0.3218,-0.3204,-0.3238,-0.3255,-0.3262,-0.3177,-0.3177,-0.3176,-0.3176,0,0,-0.2891,-0.2934,-0.2943,-0.296,-0.2994,-0.3021,-0.3056,-0.3091,-0.311,-0.3137,-0.3168,-0.3214,-0.3209,-0.3231,-0.3239,-0.3262,-0.3301,-0.3254,-0.3255,-0.3263,-0.3356,-0.336,-0.3368,-0.3301,-0.3303,-0.3304,-0.3353,0,-0.2938,-0.3,-0.3011,-0.3065,-0.3096,-0.3099,-0.3129,-0.3154,-0.3168,-0.3197,-0.3213,-0.3246,-0.3237,-0.325,-0.3273,-0.3291,-0.332,-0.3288,-0.333,-0.3332,-0.3323,-0.3376,-0.3381,-0.3427,-0.336,-0.3361,-0.3362,0,-0.3002,-0.303,-0.3087,-0.3117,-0.313,-0.3158,-0.3191,-0.3218,-0.3246,-0.3254,-0.3278,-0.3283,-0.332,-0.3303,-0.3354,-0.3332,-0.335,-0.3361,-0.3363,-0.3369,-0.335,-0.3384,-0.3442,-0.3449,-0.3372,-0.3371,-0.337,0,-0.3033,-0.3085,-0.3126,-0.3141,-0.3176,-0.3195,-0.3211,-0.3238,-0.3258,-0.3287,-0.33,-0.3333,-0.3352,-0.3377,-0.3392,-0.3378,-0.3442,-0.3426,-0.3451,-0.3451,-0.3466,-0.3465,-0.3528,-0.3476,-0.3475,-0.3475,-0.3475,0,-0.3085,-0.3121,-0.3141,-0.3166,-0.3205,-0.3217,-0.3256,-0.3272,-0.3295,-0.3324,-0.3328,-0.3355,-0.3371,-0.3401,-0.3412,-0.3453,-0.3461,-0.347,-0.3473,-0.347,-0.3469,-0.3483,-0.348,-0.3477,-0.3477,-0.3476,-0.3476,0,-0.3128,-0.3142,-0.3187,-0.3217,-0.3225,-0.3253,-0.3278,-0.3303,-0.3316,-0.3352,-0.3362,-0.3383,-0.3418,-0.3434,-0.3478,-0.3485,-0.3532,-0.3532,-0.3522,-0.3523,-0.3548,-0.3545,-0.3623,-0.3634,-0.3573,-0.3574,-0.3574,0,-0.3161,-0.3187,-0.3219,-0.3238,-0.3254,-0.3285,-0.3305,-0.3318,-0.3339,-0.3372,-0.3393,-0.3428,-0.3456,-0.3512,-0.3532,-0.3565,-0.3566,-0.3591,-0.3571,-0.3568,-0.3567,-0.3566,-0.3569,-0.3595,-0.3595,-0.3596,-0.3596,0,-0.3217,-0.3223,-0.3252,-0.3283,-0.3307,-0.3332,-0.3358,-0.3373,-0.3389,-0.3413,-0.3448,-0.347,-0.3513,-0.3548,-0.3582,-0.3599,-0.3601,-0.3602,-0.361,-0.3608,-0.3601,-0.3606,-0.3533,-0.3601,-0.36,-0.36,-0.36,-0.3599,-0.3257,-0.3281,-0.3306,-0.3338,-0.3358,-0.3381,-0.3405,-0.3421,-0.3451,-0.3486,-0.3492,-0.3529,-0.3556,-0.3602,-0.362,-0.3649,-0.3644,-0.3655,-0.3658,-0.366,-0.3662,-0.3595,-0.3656,-0.3656,-0.3655,-0.3655,-0.3655,0,-0.3314,-0.3331,-0.336,-0.3394,-0.3419,-0.3417,-0.3444,-0.3465,-0.3498,-0.3522,-0.355,-0.359,-0.3623,-0.3645,-0.3678,-0.3698,-0.37,-0.3706,-0.3706,-0.371,-0.3665,-0.3655,-0.3705,-0.3705,-0.3705,-0.3705,-0.3704,-0.3704,-0.3347,-0.3388,-0.3396,-0.3446,-0.3462,-0.3498,-0.3514,-0.3536,-0.3555,-0.3599,-0.3626,-0.364,-0.3663,-0.3698,-0.3729,-0.3734,-0.3747,-0.3754,-0.376,-0.3718,-0.3713,-0.3708,-0.3699,-0.3757,-0.3757,-0.3802,-0.3802,-0.3803]},{"header":{"parameterUnit":"m.s-1","parameterCategory":1,"la1":30.2991,"la2":30.254,"lo1":-89.0895,"lo2":-89.0444,"dy":0.0017,"dx":0.0017,"nx":28,"ny":28,"refTime":"2024-12-02T09:00:00:Z","depth":0,"parameterNumber":3,"parameterNumberName":"V-component_of_WINDS"},"data":[0,0,0,0,0,0,0,0,0,0,0,0,0,0,0,0,0,0,0,0,0,0,0,0,0,0,0,0,0,0,0,0,0,0,0,0,0,0,0,0,0,0,0,0,0,0,0,0,0,0,0,0,0,0,0,0,0,0,-3.7864,-3.7865,0,-3.7958,-3.7959,-3.796,-3.7908,-3.7906,-3.7903,-3.7901,-3.7993,-3.7997,-3.8002,0,0,0,0,0,0,0,0,0,0,0,0,0,-3.7636,-3.7641,-3.7864,-3.7865,-3.7867,-3.7958,-3.7959,-3.796,-3.7909,-3.7906,-3.7903,-3.79,-3.7991,-3.7997,-3.8003,0,0,0,0,0,0,0,0,0,0,0,0,0,-3.7733,-3.7642,-3.7864,-3.7852,-3.7852,-3.7958,-3.7959,-3.7961,-3.7909,-3.7906,-3.7902,-3.7898,-3.7989,-3.7996,-3.8003,-3.8125,0,0,-3.8025,-3.8029,0,0,0,0,0,0,0,0,-3.7728,-3.7741,-3.7852,-3.7853,-3.7853,-3.7918,-3.7912,-3.8016,-3.791,-3.7887,-3.7901,-3.7896,-3.797,-3.7979,-3.8005,-3.8129,-3.8133,-3.8026,-3.8031,-3.8034,-3.8036,0,0,0,0,0,0,0,-3.7721,-3.7737,-3.7901,-3.7854,-3.7854,-3.784,-3.785,-3.7932,-3.7949,-3.7889,-3.7886,-3.7898,-3.797,-3.7998,-3.8007,-3.8135,-3.8026,-3.8032,-3.8037,-3.804,-3.8363,-3.8367,0,0,0,0,0,0,-3.7716,-3.7732,-3.7898,-3.7904,-3.778,-3.7848,-3.7858,-3.7901,-3.7948,-3.7952,-3.7901,-3.7895,-3.7988,-3.7998,-3.801,-3.8155,-3.8034,-3.804,-3.8045,-3.8359,-3.8364,-3.8369,0,0,0,0,0,0,-3.7711,-3.7731,-3.7894,-3.7817,-3.7837,-3.7856,-3.7904,-3.7905,-3.7933,-3.7957,-3.796,-3.7927,-3.7985,-3.7999,-3.8097,-3.8158,-3.8044,-3.805,-3.8354,-3.836,-3.8366,-3.8447,0,0,0,0,0,0,-3.7705,-3.773,-3.7777,-3.7819,-3.7841,-3.7982,-3.7907,-3.7909,-3.7946,-3.7939,-3.7982,-3.7985,-3.7983,-3.8086,-3.8104,-3.8166,-3.8056,-3.8348,-3.8357,-3.8364,-3.8439,-3.8456,-3.847,0,0,0,0,0,-3.7697,-3.7795,-3.778,-3.78,-3.7901,-3.7985,-3.7998,-3.7994,-3.7951,-3.7998,-3.8014,-3.7984,-3.8148,-3.8097,-3.8116,-3.8181,-3.8345,-3.8354,-3.8364,-3.8432,-3.8452,-3.8469,0,0,0,0,0,0,-3.7759,-3.78,-3.7784,-3.7899,-3.7939,-3.7976,-3.8036,-3.8016,-3.8068,-3.8059,-3.8051,-3.8061,-3.8163,-3.8181,-3.8123,-3.8301,-3.8239,-3.8253,-3.8285,-3.8304,-3.8319,-3.8312,-3.8062,0,0,0,0,0,-3.7786,-3.7853,-3.7885,-3.7983,-3.8004,-3.8017,-3.8053,-3.8047,-3.8088,-3.8104,-3.8127,-3.8166,-3.8226,-3.8266,-3.8323,-3.8442,-3.845,-3.8496,-3.8511,-3.8523,-3.8535,-3.8599,-3.8619,-3.84,-3.84,-3.84,0,0,-3.7843,-3.7874,-3.7916,-3.7997,-3.8027,-3.8094,-3.8031,-3.8105,-3.8155,-3.8115,-3.8209,-3.8227,-3.827,-3.8379,-3.8427,-3.8397,-3.8597,-3.8535,-3.8545,-3.855,-3.861,-3.8631,-3.865,-3.8406,-3.8405,-3.8404,0,0,-3.7981,-3.8012,-3.8097,-3.8129,-3.8176,-3.8184,-3.8205,-3.8245,-3.8256,-3.8351,-3.8322,-3.838,-3.8484,-3.8516,-3.8546,-3.8696,-3.8671,-3.8715,-3.8794,-3.8856,-3.8873,-3.8889,-3.8942,-3.8961,-3.8727,-3.8727,-3.8727,0,-3.8045,-3.8147,-3.8143,-3.822,-3.8256,-3.8224,-3.831,-3.834,-3.8403,-3.8428,-3.8394,-3.8524,-3.8551,-3.8666,-3.8703,-3.8729,-3.8751,-3.871,-3.8872,-3.8887,-3.8901,-3.8951,-3.8972,-3.8732,-3.8732,-3.8731,-3.8731,0,-3.8224,-3.8295,-3.8358,-3.8421,-3.8464,-3.8545,-3.8551,-3.8595,-3.8585,-3.8596,-3.8692,-3.8723,-3.8786,-3.8813,-3.8803,-3.8927,-3.8907,-3.8872,-3.881,-3.8927,-3.8974,-3.8994,-3.8739,-3.8738,-3.8736,-3.8735,0,0,-3.8403,-3.8464,-3.8487,-3.8515,-3.8565,-3.8619,-3.8698,-3.8761,-3.8798,-3.8842,-3.8907,-3.8997,-3.8965,-3.8999,-3.8993,-3.9047,-3.9164,-3.9006,-3.9007,-3.9034,-3.9301,-3.9327,-3.9349,-3.9148,-3.9151,-3.9154,-3.9298,0,-3.8544,-3.8684,-3.8682,-3.8811,-3.8876,-3.8847,-3.8915,-3.8953,-3.8965,-3.9021,-3.9033,-3.9097,-3.9051,-3.9071,-3.9124,-3.9139,-3.9217,-3.9128,-3.9207,-3.921,-3.9197,-3.9374,-3.9402,-3.9535,-3.9316,-3.9319,-3.9321,0,-3.8727,-3.878,-3.8915,-3.8956,-3.8983,-3.9045,-3.9102,-3.9156,-3.9197,-3.9202,-3.9241,-3.9226,-3.9305,-3.9241,-3.9349,-3.9288,-3.932,-3.9332,-3.9337,-3.9344,-3.9272,-3.9385,-3.9578,-3.9598,-3.9351,-3.9348,-3.9346,0,-3.8844,-3.8948,-3.9043,-3.9068,-3.9118,-3.9162,-3.9184,-3.9222,-3.9259,-3.9309,-3.9333,-3.939,-3.9422,-3.9466,-3.9467,-3.942,-3.9575,-3.9512,-3.958,-3.9581,-3.9614,-3.9612,-3.9814,-3.9636,-3.9635,-3.9635,-3.9634,0,-3.9002,-3.9086,-3.9096,-3.9154,-3.9247,-3.9244,-3.9335,-3.9353,-3.9387,-3.9447,-3.9425,-3.9481,-3.9479,-3.9536,-3.9537,-3.9626,-3.964,-3.9645,-3.9644,-3.9647,-3.9646,-3.9667,-3.9658,-3.964,-3.9639,-3.9638,-3.9637,0,-3.9148,-3.9159,-3.926,-3.9299,-3.9311,-3.9377,-3.941,-3.9464,-3.9475,-3.9551,-3.9569,-3.9585,-3.965,-3.9656,-3.9731,-3.9732,-3.9839,-3.9828,-3.9826,-3.9824,-3.9893,-3.9886,-4.0115,-4.0145,-3.9947,-3.9949,-3.9951,0,-3.9248,-3.9312,-3.9358,-3.9398,-3.9423,-3.9487,-3.9526,-3.9525,-3.9566,-3.9618,-3.9666,-3.973,-3.9781,-3.9887,-3.9905,-3.9962,-3.9952,-4.0029,-3.9961,-3.9962,-3.9953,-3.9949,-3.9955,-4.0042,-4.0044,-4.0046,-4.0047,0,-3.9424,-3.9426,-3.9483,-3.9543,-3.959,-3.9637,-3.968,-3.9713,-3.9717,-3.9764,-3.9832,-3.9872,-3.995,-4.0014,-4.007,-4.0091,-4.007,-4.0069,-4.0088,-4.0091,-4.0087,-4.009,-3.9862,-4.0063,-4.0062,-4.006,-4.006,-4.0059,-3.9549,-3.9605,-3.9647,-3.9711,-3.9744,-3.9785,-3.9839,-3.9856,-3.9913,-3.9978,-3.9973,-4.0048,-4.0087,-4.0161,-4.0187,-4.0245,-4.0219,-4.0246,-4.0253,-4.026,-4.0267,-4.0078,-4.0255,-4.0254,-4.0254,-4.0254,-4.0253,0,-3.9724,-3.9749,-3.9809,-3.9871,-3.9922,-3.9899,-3.9945,-3.9989,-4.0056,-4.0094,-4.0146,-4.0223,-4.0285,-4.0308,-4.0367,-4.0409,-4.04,-4.0424,-4.0421,-4.0426,-4.0287,-4.0264,-4.043,-4.043,-4.043,-4.043,-4.043,-4.043,-3.982,-3.9913,-3.992,-4.0029,-4.0053,-4.0128,-4.0156,-4.0194,-4.0225,-4.0313,-4.0365,-4.0379,-4.0411,-4.0473,-4.0528,-4.0533,-4.0556,-4.0584,-4.0585,-4.0454,-4.0436,-4.0419,-4.0398,-4.0589,-4.0589,-4.0719,-4.072,-4.0721]}]]